{"data":{"norad_id":81812,"intl_designator":"","name":"UNKNOWN","alt_names":[],"object_type":"UNKNOWN","status":"UNKNOWN","operator":null,"country":null,"launch_date":null,"launch_site_code":null,"launch_vehicle":null,"mission":null,"orbit_class":"UNKNOWN","rcs_meters":null,"size_class":null,"mass_kg":null,"dimensions":null,"purposes":[],"wikipedia_slug":null,"has_3d_model":false,"image_url":null,"decayed_at":null,"tle_current":{"epoch":"2026-09-17T07:45:47.827008Z","epoch_age_seconds":288992,"freshness":"STALE","line1":"1 81812U          26260.32347022  .00005950  00000+0  39715-1 0  9993","line2":"2 81812 103.7000 212.4915 0275749 109.7992 253.3014 12.39332134575059","mean_motion":12.39332134,"eccentricity":0.0275749,"inclination_deg":103.7,"raan_deg":212.4915,"arg_perigee_deg":109.7992,"mean_anomaly_deg":253.3014,"bstar":0.039715,"rev_number":57505,"period_min":116.19161324837,"perigee_km":1291.936539468,"apogee_km":1726.9345888673,"semimajor_km":7887.5725641677,"source":"CELESTRAK","updated_at":"2026-09-20T09:00:32.395435Z"}}}